Regional Weather Roundup
Issued by NWS Upton, NY

Current Version | Previous Version | Graphics & Text | Print | Product List | Glossary Off
Versions: 1 2 3 4 5 6 7 8 9 10 11 12 13 14 15 16 17 18 19 20 21 22 23 24 25 26 27 28 29 30 31 32 33 34 35 36 37 38 39 40 41 42 43 44 45 46 47 48 49 50

000
ASUS41 KOKX 292104
RWROKX

REGIONAL WEATHER ROUNDUP
NATIONAL WEATHER SERVICE NEW YORK NY
500 PM EDT SUN MAY 29 2016

NOTE: "FAIR" INDICATES FEW OR NO CLOUDS BELOW 12,000 FEET WITH NO
SIGNIFICANT WEATHER AND/OR OBSTRUCTIONS TO VISIBILITY.

NYZ071-072-176-178-NJZ106-104-292200-
NEW YORK CITY METRO AREA


CITY           SKY/WX    TMP DP  RH WIND       PRES   REMARKS
CENTRAL PARK   MOSUNNY   77  63  61 S7        30.10F
LAGUARDIA APRT PTSUNNY   79  71  76 S18       30.07F
KENNEDY INTL   HAZE      71  65  81 S10       30.10F VSB 1
NEWARK/LIBERTY PTSUNNY   82  65  56 SE10      30.06S
BRNX BOT. GARD   N/A     75  64  69 SE2       30.10S
TETERBORO      MOSUNNY   82  59  45 S12       30.05F
$$

NYZ177-179-078>081-292200-
LONG ISLAND NEW YORK

CITY           SKY/WX    TMP DP  RH WIND       PRES   REMARKS
FARMINGDALE    CLOUDY    73  68  84 S10       30.10F
ISLIP          DRZL/FOG  70  67  90 S8        30.10F VSB 1/2
SHIRLEY        CLOUDY    71  67  87 S8        30.12F FOG
RIVERHEAD        N/A     75  70  83 NW2       30.10F
WESTHAMPTON    CLOUDY    71  67  87 S7        30.14S
EAST HAMPTON   CLOUDY    71  66  87 SW9       30.12F
MONTAUK POINT    N/A     69  66  90 VRB5      30.14F
$$

NYZ052-065-067-292200-
HUDSON VALLEY

CITY           SKY/WX    TMP DP  RH WIND       PRES   REMARKS
WHITE PLAINS   MOSUNNY   79  58  48 SE14G20   30.08F
NEWBURGH       MOSUNNY   84  66  54 S14G21    30.06S
MONTGOMERY     PTSUNNY   87  66  49 S12       30.03S
POUGHKEEPSIE   CLOUDY    89  64  43 S12G20    30.02F HX  90
ALBANY         CLOUDY    80  65  59 CALM      30.02F
$$

NJZ001-105-106-008-010-013-015-019>022-104-292200-
NEW JERSEY

CITY           SKY/WX    TMP DP  RH WIND       PRES   REMARKS
NEWARK/LIBERTY PTSUNNY   82  65  56 SE10      30.06S
TETERBORO      MOSUNNY   82  59  45 S12       30.05F
CALDWELL       SUNNY     83  57  41 SE13      30.05S
MORRISTOWN     PTSUNNY   90  57  33 S12G21    30.04F
SOMERVILLE     SUNNY     87  57  35 S9G18     30.03F
SUSSEX         MOSUNNY   87  61  41 SW9       30.04F
ANDOVER          N/A     86  57  37 VRB6      30.06F
TRENTON        MOSUNNY   87  53  31 SW9       30.04F
MILLVILLE      PTSUNNY   79  68  69 VRB6      30.09F
ATLANTIC CITY  CLOUDY    77  70  79 S9        30.09F
WRIGHTSTOWN    MOSUNNY   84  69  60 S14       30.03F
TOMS RIVER     MOSUNNY   84  64  51 S13       30.07F
BELMAR         SUNNY     81  68  64 S12G22    30.08F
$$

PAZ047>061-062-071-292200-
EASTERN PENNSYLVANIA

CITY           SKY/WX    TMP DP  RH WIND       PRES   REMARKS
PHILADELPHIA   CLOUDY    84  65  52 S10       30.06F
ALLENTOWN      SUNNY     89  58  34 SW9       30.05F
SCRANTON       CLOUDY    86  61  42 S10       30.05S
$$

CTZ002-004>006-009-010-012-RIZ004-006-007-MAZ004-011-015-292200-
SOUTHERN NEW ENGLAND
 IN CT

CITY           SKY/WX    TMP DP  RH WIND       PRES   REMARKS
BRADLEY INTL   PTSUNNY   87  61  41 S16       30.05F
HARTFORD       SUNNY     87  62  43 S13       30.06F
DANBURY        PTSUNNY   80  59  48 S10       30.09S
WTRBRY/OXFORD  PTSUNNY   81  61  50 S14       30.12F
BRIDGEPORT     MOSUNNY   79  63  57 S13       30.09S
MERIDEN        MOSUNNY   85  57  38 S9        30.08F
NEW HAVEN      MOSUNNY   78  62  57 S12       30.10S
CHESTER        FAIR      79  57  47 S13       30.12S
GROTON         MOSUNNY   68  65  90 S7        30.11F
WILLIMANTIC    SUNNY     86  61  42 S12       30.09F

 IN RI

CITY           SKY/WX    TMP DP  RH WIND       PRES   REMARKS
PROVIDENCE     MOSUNNY   77  61  57 SE12      30.13F
BLOCK ISLAND   CLOUDY    67  64  90 S9        30.14F
WESTERLY       MOSUNNY   71  61  70 S6        30.13F

 IN MA

CITY           SKY/WX    TMP DP  RH WIND       PRES   REMARKS
BOSTON         CLOUDY    57  52  83 NE9       30.19F
WORCESTER      CLOUDY    60  55  83 E12       30.16F
WESTFIELD      CLOUDY    80  65  59 NE9       30.07F
PROVINCETOWN   CLOUDY    57  54  89 N7        30.18S
NANTUCKET      CLOUDY    67  60  78 SW8       30.16S
$$

ANZ330-335-338-340-345-350-353-355-292200-
COASTAL MARINE OBSERVATIONS


STATION/POSITION TIME  SKY/WX   TEMP    WIND        PRES    VSBY  WAVE
                                AIR SEA DIR/SP/G                  HT/PER
                 (UTC)          (F)     (DEG/KT/KT) (MB)    (MI)  (FT/S)
NY HARB ENTRANCE 1950            61 59  170/ 12/ 14 1018.9          2/ 8
20S FIRE ISLAND  1950            63 62  160/  8/ 10 1019.8          2/ 8
GREAT SOUTH BAY  2000            65 71  200/ 10/ 12   N/A
23 SSW MONTAUK P 2050            61 60  180/  4/  6 1019.9          2/ 8
15 E BARNEGAT LI 2022               62                N/A           3/ 8
HUDSON CANYON    1950            65 63              1020.4          3/ 8
KINGS POINT      2000            73 65              1018.6
EXECUTION ROCKS  NOT AVBL
CENTRAL LI SOUND 2000            71     190/  6/  8   N/A           1
EASTERN LI SOUND 2000            63 56  180/  8/ 10   N/A
ROBBINS REEF     2006            65     170/ 17/ 18 1017.7
$$


>>>>>>>>>>>>>>>>>>>>>>>>>>>> KEY <<<<<<<<<<<<<<<<<<<<<<<<<<<
>                                                          <
>     SKY/WX - SKY CONDITION/PRESENT WEATHER               <
>     TMP    - TEMPERATURE IN FAHRENHEIT                   <
>     DP     - DEWPOINT IN FAHRENHEIT                      <
>     RH     - RELATIVE HUMIDITY IN PERCENT                <
>     WIND   - DIRECTION AND SPEED IN MPH                  <
>     PRES   - MEAN SEA LEVEL PRESSURE IN INCHES OF HG     <
>     WCI    - WIND CHILL INDEX                            <
>     VSB    - VISIBILITY IN MILES                         <
>     HX     - HEAT INDEX                                  <
>     TC     - TEMPERATURE IN CELSIUS                      <
>     VRB    - VARIABLE WIND DIRECTION                     <
>                                                          <
>>>>>>>>>>>>>>>>>>>>>>>>>>>> KEY <<<<<<<<<<<<<<<<<<<<<<<<<<<





USA.gov is the U.S. government's official web portal to all federal, state and local government web resources and services.